Regional Weather Roundup
Issued by NWS

Home | Current Version | Previous Version | Graphics & Text | Print | Product List | Glossary On
Versions: 1 2 3 4 5 6 7 8 9 10 11 12 13 14 15 16 17 18 19 20 21 22 23 24 25 26 27 28 29 30 31 32 33 34 35 36 37 38 39 40 41 42 43 44 45 46 47 48 49 50
000
ASUS43 KIND 251859
RWRIN

WEATHER ROUNDUP FOR INDIANA
NATIONAL WEATHER SERVICE INDIANAPOLIS IN
300 PM EDT WED APR 25 2018

NOTE: "FAIR" INDICATES FEW OR NO CLOUDS BELOW 12,000 FEET WITH NO
SIGNIFICANT WEATHER AND/OR OBSTRUCTIONS TO VISIBILITY.

* - STATION DOES NOT REPORT WEATHER SUCH AS PRECIPITATION OR FOG.

+ - STATION NOT QUALITY CONTROLLED BY THE NATIONAL WEATHER SERVICE.
    USE DATA WITH CAUTION...ESPECIALLY DEWPOINT AND RELATIVE
    HUMIDITY OBSERVATIONS.

INZ001>003-010>013-019-020-252000-
NORTHWEST INDIANA

CITY           SKY/WX    TMP DP  RH WIND       PRES   REMARKS
GARY /AIRPORT/ MOSUNNY   46  34  61 N16G28    30.12S
KNOX *+        FAIR      54  32  43 N21G28    30.05S
MONTICELLO +   FAIR      61  33  35 N20G26    30.01S

$$

LMZ046-743>745-252000-
SOUTHERN LAKE MICHIGAN

STATION/POSITION TIME  TEMP    WIND        PRES    WAVE
                       AIR SEA DIR/SP/G            HT
                 (UTC) (F)     (DEG/KT/KT) (MB)    (FT)
BURNS HARBOR     1840   39     350/ 15/ 20 1020.0S
MICHIGAN CITY    1830   40     340/ 23/ 24   N/A

$$

INZ004-005-014>016-021>024-252000-
NORTH CENTRAL INDIANA

CITY           SKY/WX    TMP DP  RH WIND       PRES   REMARKS
GOSHEN         FAIR      58  33  39 NW13G25   29.98S
PERU/GRISSOM   FAIR      64  39  39 NW15      29.97F
ROCHESTER +    FAIR      61  34  36 NW20G26   30.01S
SOUTH BEND     FAIR      52  32  46 NW20G25   30.05R
WARSAW +       FAIR      59  34  38 W15G24    29.99R

$$

INZ006>009-017-018-025>027-252000-
NORTHEAST INDIANA

CITY           SKY/WX    TMP DP  RH WIND       PRES   REMARKS
ANGOLA *+      FAIR      61  34  36 N10G17    29.94F
FORT WAYNE     FAIR      64  40  41 N13G20    29.96S
KENDALLVILLE + FAIR      61  28  28 NW13G18   29.96S

$$

INZ028-029-035-036-043>045-051>053-252000-
WEST CENTRAL INDIANA

CITY           SKY/WX    TMP DP  RH WIND       PRES   REMARKS
GREENCASTLE +  FAIR      61  46  59 N7        30.00F
LAFAYETTE      FAIR      62  38  40 N20       30.00F
TERRE HAUTE    FAIR      65  51  60 N10       30.00F

$$

INZ030>032-037>040-046>048-054>057-064-065-252000-
CENTRAL INDIANA

CITY           SKY/WX    TMP DP  RH WIND       PRES   REMARKS
COLUMBUS       PTSUNNY   63  48  59 NW13      29.97F
GREENWOOD *+   CLOUDY    57  48  73 N9        30.00S
INDIANAPOLIS   PTSUNNY   62  49  62 N9        29.99F
-EAGLE CREEK   FAIR      63  48  58 N10       29.98F
KOKOMO +       FAIR      63  42  46 N13       29.99F
MT COMFORT *+  FAIR      59  52  77 N8        29.99F
SHELBYVILLE    PTSUNNY   61  50  67 NW14G20   29.97R
ZIONSVILLE +   FAIR      59  47  63 NW9G17    29.99F

$$

INZ033-034-041-042-049-050-058-059-252000-
EAST CENTRAL INDIANA

CITY           SKY/WX    TMP DP  RH WIND       PRES   REMARKS
MUNCIE         FAIR      63  46  54 NW12      29.96S
RICHMOND +     FAIR      61  46  59 N9G22     29.95S

$$

INZ060-061-067>069-081>083-085>088-252000-
SOUTHWEST INDIANA

CITY           SKY/WX    TMP DP  RH WIND       PRES   REMARKS
EVANSVILLE     FAIR      68  54  60 N7        29.99F
HUNTINGBURG +  PTSUNNY   66  53  63 VRB7      29.98F

$$

INZ062-063-066-070>080-084-089>092-252000-
SOUTH CENTRAL AND SOUTHEAST INDIANA

CITY           SKY/WX    TMP DP  RH WIND       PRES   REMARKS
BLOOMINGTON    FAIR      64  50  60 NW8G18    29.98F
SEYMOUR +      FAIR      66  48  52 N9G17     29.97S

$$





USA.gov is the U.S. government's official web portal to all federal, state and local government web resources and services.